Regional Weather Roundup
Issued by NWS

Home | Current Version | Previous Version | Text Only | Print | Product List | Glossary On
Versions: 1 2 3 4 5 6 7 8 9 10 11 12 13 14 15 16 17 18 19 20 21 22 23 24 25 26 27 28 29 30 31 32 33 34 35 36 37 38 39 40 41 42 43 44 45 46 47 48 49 50
000
ASUS43 KTOP 041108
RWRKS

WEATHER ROUNDUP FOR KANSAS
NATIONAL WEATHER SERVICE GOODLAND KS
600 AM CDT WED MAY 04 2016

NOTE:  "FAIR" INDICATES FEW OR NO CLOUDS BELOW 12,000 FEET WITH NO
SIGNIFICANT WEATHER AND/OR OBSTRUCTIONS TO VISIBILITY.

KSZ001>006-013>018-027>032-041>047-041200-
NORTHWEST KANSAS

CITY           SKY/WX    TMP DP  RH WIND       PRES   REMARKS
GOODLAND       CLEAR     43  34  70 W9        30.15S
HAYS           CLEAR     45  36  70 W8        30.03S
HILL CITY      CLEAR     46  39  76 W9        30.07R
RUSSELL        CLEAR     46  42  86 W12       30.00S
$$

KSZ061>065-074>080-084>089-041200-
SOUTHWEST KANSAS

CITY           SKY/WX    TMP DP  RH WIND       PRES   REMARKS
DODGE CITY     CLEAR     45  39  79 W9        30.09S
ELKHART          N/A     44  35  70 W9          N/A
GARDEN CITY    CLEAR     41  36  82 NW9       30.11S
GREAT BEND     CLEAR     48  39  71 W12       30.03R
LIBERAL        CLEAR     43  36  75 NW8       30.14R
PRATT          CLEAR     44  40  85 W13       30.04S
$$

KSZ066>073-081>083-090>101-041200-
SOUTHEAST KANSAS

CITY           SKY/WX    TMP DP  RH WIND       PRES   REMARKS
CHANUTE        CLEAR     52  44  74 W7        29.91F
COFFEYVILLE    CLEAR     53  45  74 W7        29.94S
HUTCHINSON     CLEAR     51  45  79 W10       29.99F
MEDICINE LODGE   N/A     46  42  86 NW3       30.03F
NEWTON         CLEAR     48  39  71 W7        29.99S
PARSONS        CLEAR     46  45  96 CALM      29.94S
WICHITA INTL   CLEAR     54  45  71 W10       29.98F
WICHITA JABRA  CLEAR     53  44  71 W12       29.97F
WICHITA MCCONL CLEAR     53  44  70 W6        29.97F
WINFIELD       CLEAR     48  43  82 CALM      30.29F
$$

KSZ007>012-019>026-033>040-048>060-102>105-041200-
NORTHEAST KANSAS

CITY           SKY/WX    TMP DP  RH WIND       PRES   REMARKS
CONCORDIA      CLEAR     50  42  74 NW8       29.99R
EMPORIA        CLEAR     53  44  71 W10       29.92S
LAWRENCE       CLEAR     50  45  83 NW8       29.89R
MANHATTAN      CLEAR     49  42  77 CALM      29.95R
MARYSVILLE     CLEAR     48  43  81 N8        29.96R
OLATHE IND     CLEAR     54  45  71 NW12      29.88R
OLATHE EXE     CLEAR     54  43  66 NW12G17   29.86S
SALINA         CLEAR     50  44  80 NW7       29.99R
TOPEKA BILLARD CLEAR     52  44  74 W7        29.90S
TOPEKA FORBES  CLEAR     53  44  71 NW12      29.90S
$$




USA.gov is the U.S. government's official web portal to all federal, state and local government web resources and services.